User: anonymous
Location: Caltech
(34.1382°N, 118.1253°W)
Time: 21:17:30
(UTC-07:00)
Language:

Cosmos 1939 Rocket - Orbit

View from above orbital plane
View from above orbital plane
View from above satellite
View from above satellite

Ground track
Ground track

The orbit data is extracted from the following two-line orbital elements,

1 19046U 88032B   14244.20732768  .00000838  00000-0  72004-4 0  9661
2 19046 097.6396 297.4139 0036707 203.5337 156.4208 14.99653564419599
Epoch (UTC): 01 September 2014 04:58:33
Eccentricity: 0.0036707
inclination: 97.6396°
perigee height: 542 km
apogee height: 593 km
right ascension of ascending node: 297.4139°
argument of perigee: 203.5337°
revolutions per day: 14.99653564
mean anomaly at epoch: 156.4208°
orbit number at epoch: 41959

The dashed part of the orbit path shows where the satellite is in the earth's shadow,  

DLR